RYR242N EDDH-EDHL

Flight info

Callsign RYR242N
Flight time 0h 18m
Altitude 14000
Route AMLUH2G AMLUH DCT NOLGO NOLGO2R
Aircraft B738/M-SDE2E3FGHIRWXY/LB1

Departure

Time 2026-04-25 13:17
Airport Hamburg Helmut Schmidt Airport (EDDH)

Arrival

Time 2026-04-25 13:36
Airport Lübeck Blankensee Airport (EDHL)
Time Latitude Longitude Altitude Speed Heading
2026-04-25 13:00 53.62770 10.00269 61 ft 0 kts 63°
2026-04-25 13:01 53.62683 10.00340 61 ft 0 kts 64°
2026-04-25 13:11 53.62681 10.00333 61 ft 2 kts 64°
2026-04-25 13:11 53.62674 10.00310 61 ft 2 kts 64°
2026-04-25 13:11 53.62667 10.00285 61 ft 2 kts 64°
2026-04-25 13:11 53.62660 10.00262 61 ft 2 kts 51°
2026-04-25 13:12 53.62648 10.00249 61 ft 2 kts 10°
2026-04-25 13:12 53.62633 10.00251 61 ft 1 kts 334°
2026-04-25 13:12 53.62629 10.00255 61 ft 0 kts 326°
2026-04-25 13:15 53.62632 10.00252 61 ft 4 kts 328°
2026-04-25 13:15 53.62693 10.00196 61 ft 9 kts 332°
2026-04-25 13:16 53.62749 10.00150 61 ft 11 kts 334°
2026-04-25 13:16 53.62851 10.00064 61 ft 16 kts 335°
2026-04-25 13:16 53.62917 9.99982 61 ft 10 kts 256°
2026-04-25 13:16 53.62889 9.99889 61 ft 8 kts 242°
2026-04-25 13:17 53.62874 9.99744 61 ft 19 kts 315°
2026-04-25 13:17 53.63112 9.99532 61 ft 78 kts 333°
2026-04-25 13:17 53.63869 9.98878 63 ft 163 kts 333°
2026-04-25 13:17 53.64937 9.97959 742 ft 183 kts 333°
2026-04-25 13:18 53.66075 9.97013 1615 ft 193 kts 334°
2026-04-25 13:18 53.67445 9.95883 1897 ft 247 kts 333°
2026-04-25 13:18 53.68977 9.94682 3306 ft 248 kts 341°
2026-04-25 13:18 53.70620 9.94225 4512 ft 257 kts
2026-04-25 13:19 53.72259 9.94893 6136 ft 242 kts 30°
2026-04-25 13:19 53.73443 9.96450 7574 ft 231 kts 48°
2026-04-25 13:19 53.74231 9.98819 8554 ft 238 kts 74°
2026-04-25 13:19 53.74451 10.00678 8760 ft 257 kts 84°
2026-04-25 13:20 53.74066 10.04819 8805 ft 278 kts 112°
2026-04-25 13:20 53.73025 10.07634 8693 ft 282 kts 133°
2026-04-25 13:20 53.71478 10.09633 8656 ft 280 kts 151°
2026-04-25 13:20 53.69952 10.11570 8656 ft 280 kts 131°
2026-04-25 13:21 53.68905 10.14310 8298 ft 280 kts 112°
2026-04-25 13:21 53.68404 10.17464 7964 ft 277 kts 107°
2026-04-25 13:21 53.67503 10.20321 7561 ft 277 kts 131°
2026-04-25 13:21 53.65989 10.22201 7207 ft 276 kts 157°
2026-04-25 13:22 53.64204 10.23156 6869 ft 274 kts 158°
2026-04-25 13:22 53.62678 10.25004 6497 ft 273 kts 129°
2026-04-25 13:22 53.61827 10.27807 6132 ft 272 kts 103°
2026-04-25 13:23 53.62550 10.33752 5481 ft 268 kts 63°
2026-04-25 13:23 53.63380 10.36515 5136 ft 268 kts 63°
2026-04-25 13:23 53.64190 10.39193 4835 ft 266 kts 63°
2026-04-25 13:23 53.65033 10.41981 4513 ft 265 kts 63°
2026-04-25 13:24 53.65845 10.44671 4207 ft 264 kts 63°
2026-04-25 13:24 53.66677 10.47428 4007 ft 265 kts 63°
2026-04-25 13:24 53.67504 10.50169 3997 ft 263 kts 63°
2026-04-25 13:24 53.68337 10.52931 3986 ft 263 kts 63°
2026-04-25 13:25 53.69155 10.55644 3979 ft 263 kts 63°
2026-04-25 13:25 53.69978 10.58379 3976 ft 263 kts 62°
2026-04-25 13:25 53.70788 10.61084 3973 ft 263 kts 64°
2026-04-25 13:25 53.71481 10.63929 3981 ft 263 kts 67°
2026-04-25 13:26 53.72166 10.66799 3972 ft 263 kts 68°
2026-04-25 13:26 53.72854 10.69686 3973 ft 263 kts 68°
2026-04-25 13:26 53.73526 10.72512 3972 ft 263 kts 68°
2026-04-25 13:26 53.74209 10.75380 3972 ft 263 kts 68°
2026-04-25 13:27 53.74892 10.78256 3972 ft 263 kts 68°
2026-04-25 13:27 53.75569 10.81106 3972 ft 263 kts 68°
2026-04-25 13:27 53.76253 10.83986 3972 ft 263 kts 68°
2026-04-25 13:27 53.76928 10.86832 3972 ft 263 kts 68°
2026-04-25 13:28 53.77611 10.89711 3972 ft 263 kts 68°
2026-04-25 13:28 53.78058 10.91599 3972 ft 263 kts 68°
2026-04-25 13:28 53.78959 10.95406 3972 ft 263 kts 69°
2026-04-25 13:28 53.79514 10.98352 3970 ft 258 kts 73°
2026-04-25 13:29 53.80011 11.01126 3919 ft 242 kts 73°
2026-04-25 13:29 53.80481 11.03757 3819 ft 220 kts 73°
2026-04-25 13:29 53.80900 11.06105 3688 ft 203 kts 73°
2026-04-25 13:30 53.82216 11.09733 3348 ft 178 kts 19°
2026-04-25 13:30 53.83401 11.09718 3393 ft 173 kts 335°
2026-04-25 13:30 53.84282 11.08340 3403 ft 179 kts 294°
2026-04-25 13:31 53.84940 11.04268 3383 ft 180 kts 283°
2026-04-25 13:31 53.85229 11.02221 3364 ft 177 kts 283°
2026-04-25 13:31 53.85515 11.00207 3160 ft 178 kts 283°
2026-04-25 13:31 53.85533 10.98123 2877 ft 181 kts 252°
2026-04-25 13:32 53.85148 10.96145 2791 ft 176 kts 252°
2026-04-25 13:32 53.84776 10.94173 2621 ft 175 kts 252°
2026-04-25 13:32 53.84403 10.92202 2402 ft 176 kts 252°
2026-04-25 13:32 53.84032 10.90250 2207 ft 170 kts 252°
2026-04-25 13:33 53.83734 10.88683 2016 ft 162 kts 252°
2026-04-25 13:33 53.83390 10.86870 1778 ft 161 kts 252°
2026-04-25 13:33 53.83048 10.85075 1553 ft 159 kts 252°
2026-04-25 13:33 53.82828 10.83923 1365 ft 154 kts 252°
2026-04-25 13:34 53.82411 10.81693 1023 ft 145 kts 252°
2026-04-25 13:34 53.82093 10.80072 902 ft 145 kts 251°
2026-04-25 13:34 53.81766 10.78464 719 ft 145 kts 251°
2026-04-25 13:34 53.81464 10.76851 543 ft 145 kts 253°
2026-04-25 13:35 53.81160 10.75206 384 ft 145 kts 252°
2026-04-25 13:35 53.80849 10.73640 167 ft 137 kts 252°
2026-04-25 13:35 53.80561 10.72193 53 ft 112 kts 257°
2026-04-25 13:35 53.80402 10.71252 51 ft 66 kts 252°
2026-04-25 13:36 53.80298 10.70698 51 ft 22 kts 263°
2026-04-25 13:36 53.80377 10.70531 51 ft 17 kts 325°
2026-04-25 13:36 53.80435 10.70405 51 ft 11 kts 265°
2026-04-25 13:36 53.80414 10.70296 51 ft 8 kts 250°
2026-04-25 13:37 53.80424 10.70237 51 ft 4 kts 326°